Location: Unspecified
(48.8582°N, 2.2947°E)
Time: 21:55:06
(UTC+02:00)

ISS - Pass Details

Date: 29 March 2019
Orbit: 408 x 410 km, 51.6° (Epoch: 23 April)

Event Time Altitude Azimuth Distance (km) Brightness Sun altitude
Rises 20:02:13 0° 268° (W) 2,336 1.7 -8.2°
Reaches altitude 10° 20:04:20 10° 273° (W) 1,475 0.6 -8.5°
Maximum altitude 20:07:35 54° 352° (N) 504 -3.2 -9.0°
Drops below altitude 10° 20:10:50 10° 71° (ENE) 1,475 -1.5 -9.5°
Enters shadow 20:10:54 10° 71° (ENE) 1,504 -1.4 -9.6°
